Location: Potawatomi Wildlife Park
(41.2308°N, 86.1050°W)
Time: 11:05:43
(UTC-04:00)

Daily predictions for brighter satellites

Satellite Brightness Start Highest point End
(mag) Time Altitude Azimuth Time Altitude Azimuth Time Altitude Azimuth
CENTAUR R/B 3.3 21:26:39 10° NNW 21:34:23 62° NE 21:42:35 10° SE
SL-8 R/B 4.1 21:35:50 10° SSW 21:40:21 41° SE 21:44:52 10° ENE
NOSS 2-2 (D) 4.2 21:39:26 10° S 21:43:06 32° ESE 21:47:10 10° NE
In-Cosmos 22 Rocket 4.4 21:38:37 10° S 21:44:26 88° ESE 21:50:17 10° N
Coronas F rocket 2.0 21:42:33 10° SSE 21:44:57 32° E 21:47:23 10° NNE
Cosmos 2184 Rocket 4.2 21:40:57 10° SSE 21:46:53 53° E 21:52:52 10° NNE
deb Chang Zheng 4 4.1 21:44:09 10° NNE 21:48:20 40° E 21:52:29 10° S
Cosmos 1606 4.5 21:48:49 10° NNE 21:51:37 18° ENE 21:54:20 10° ESE
YAOGAN 11 4.3 21:48:10 10° SSE 21:52:40 85° WSW 21:57:15 10° NNW
Cosmos 1624 Rocket 4.2 21:52:30 10° S 21:57:36 54° ESE 22:02:46 10° NNE
NOSS 2-2 (C) 3.7 21:53:46 10° SSW 21:57:40 46° ESE 22:02:06 10° NE
Meteor 2-10 Rocket 3.8 21:51:57 10° N 21:57:47 72° E 22:03:29 10° SSE
Cosmos 1892 2.6 21:55:28 10° S 21:59:15 69° E 22:03:06 10° NNE
H-2A R/B 4.4 21:55:58 10° SSW 21:59:18 32° W 22:02:41 10° NNW
Envisat 3.1 21:54:45 10° SSE 21:59:44 60° ENE 22:04:44 10° N
H-2A R/B 4.2 21:57:37 10° E 21:59:52 13° ENE 22:02:06 10° NE
SL-08 ROCKET BODY 4.5 21:54:10 10° S 22:00:05 60° E 22:05:57 10° NNE
USA 186 3.9 21:58:08 10° SSW 22:00:42 25° W 22:03:25 10° NW
Cosmos 1733 Rocket 3.1 21:59:12 10° S 22:03:33 61° E 22:07:54 10° NNE
CZ-4 SHROUD 4.3 22:08:16 16° SE 22:10:12 29° ENE 22:12:56 10° N
NOSS 8 (A) 4.4 22:08:34 10° SSW 22:12:05 73° ESE 22:15:46 10° NE
ERBS 2.6 22:10:44 10° NW 22:14:12 59° NE 22:16:36 18° ESE
SPOT 1/Viking Rocket 4.4 22:10:27 14° SE 22:14:22 34° ENE 22:19:01 10° N
NOSS 2-2 (E) 3.5 22:12:43 10° SSW 22:16:51 82° ESE 22:21:41 10° NE
Cosmos 407 Rocket 3.9 22:12:50 10° N 22:17:55 48° ENE 22:21:51 17° SE
Cosmos 1238 Rocket 3.8 22:18:21 10° NNE 22:20:52 22° ENE 22:22:00 18° ESE
Cosmos 1452 Rocket 4.2 22:16:48 10° SSE 22:21:29 34° E 22:26:11 10° NE
Cosmos 2074 Rocket 4.2 22:16:12 10° S 22:22:28 78° W 22:28:47 10° N
Nimbus 7 Rocket 4.4 22:17:29 10° NNE 22:23:25 78° ESE 22:29:23 10° S
SPOT 5 3.1 22:19:21 12° SSE 22:24:08 74° ENE 22:29:30 10° N
COSMOS 2406 3.3 22:20:23 10° NNW 22:26:11 87° WSW 22:30:58 15° SSE
EO 1 Delta rocket 4.4 22:20:49 10° N 22:27:31 79° E 22:32:46 10° S
H-2A R/B 2.3 22:24:11 10° S 22:28:32 69° WSW 22:32:48 10° NNW
Cosmos 1190 Rocket 4.0 22:23:22 10° NNW 22:28:36 74° ENE 22:32:30 18° SSE
ERS-1 Rocket 3.9 22:23:48 10° S 22:28:39 48° W 22:33:32 10° NNW
Cosmos 909 Rocket 4.4 22:22:19 10° SSW 22:28:48 82° WNW 22:36:39 10° NNE
Cosmos 1356 Rocket 4.3 22:25:56 10° SSW 22:30:02 52° WNW 22:34:14 10° N
Cosmos 1610 Rocket 4.4 22:24:41 10° S 22:30:49 84° E 22:37:04 10° N
PSLV R/B 3.0 22:29:27 25° SSE 22:30:58 64° ENE 22:33:55 10° N
Meteor 1-10 Rocket 4.4 22:25:33 10° NNW 22:31:26 80° W 22:37:09 10° S
MetOp-B 4.1 22:28:34 16° SSE 22:32:57 72° ENE 22:38:18 10° N
Cosmos 1862 3.6 22:33:23 19° SSE 22:36:02 49° E 22:39:58 10° NNE
Nadezhda 3 Rocket 4.1 22:30:31 10° N 22:36:51 66° E 22:41:45 17° SSE
Terra 3.4 22:37:59 16° E 22:40:01 21° ENE 22:43:32 10° NNE
ARGOS 3.4 22:38:34 21° SE 22:41:57 53° ENE 22:47:09 10° N
ATLAS 5 CENTAUR R/B 2.6 22:36:17 10° NW 22:42:19 71° WSW 22:46:55 20° SSE
Okean 2 Rocket 3.8 22:42:45 26° SE 22:44:29 36° E 22:48:32 10° NNE
PSLV R/B 3.5 22:42:12 10° W 22:45:36 55° SSW 22:46:43 36° SE
Cosmos 2278 Rocket 2.6 22:43:31 16° S 22:47:43 42° ESE 22:53:02 10° NE
Sich 1 Rocket 3.8 22:43:18 10° SSW 22:47:53 77° W 22:52:30 10° N
Abrixas rocket 4.1 22:46:11 10° W 22:48:50 21° SW 22:49:51 18° SSW
Cosmos 1844 3.7 22:44:20 10° SSW 22:50:02 69° ESE 22:55:49 10° NNE
USA 234 3.4 22:43:59 10° ENE 22:50:16 48° SE 22:56:30 10° SSW
CZ-4B R/B 3.4 22:46:26 10° NNE 22:51:25 63° ESE 22:54:54 19° S
Cosmos 2341 Rocket 4.0 22:46:29 13° S 22:52:09 70° E 22:58:24 10° NNE
CZ-4C R/B 4.2 22:54:26 28° E 22:55:23 32° ENE 22:58:57 10° N
Cosmos 1825 2.1 22:54:31 28° S 22:56:26 75° E 23:00:15 10° N
Cosmos 676 Rocket 3.9 22:53:05 10° NNW 22:58:19 82° ENE 23:01:01 29° SSE
Cosmos 1844 Rocket 2.9 22:55:38 10° SSW 23:01:16 73° WNW 23:06:56 10° NNE
Meteor 1-27 Rocket 3.8 22:57:19 10° NNW 23:02:54 73° W 23:06:41 21° S
Cosmos 1184 Rocket 2.7 23:04:01 55° SSE 23:04:34 69° E 23:07:54 10° NNE
Cosmos 1782 4.4 23:01:48 10° NNW 23:05:25 33° W 23:08:36 13° SSW
Cosmos 1954 Rocket 4.0 23:00:49 10° NNW 23:06:02 74° ENE 23:08:20 34° SSE
Cosmos 1174 3.0 23:03:13 10° NNW 23:06:31 71° ENE 23:06:47 65° E
Cosmos 2082 Rocket 3.5 23:02:13 10° N 23:07:03 27° NE 23:09:37 20° E
Cosmos 1782 Rocket 3.5 23:07:23 28° S 23:09:43 85° E 23:14:13 10° N
BREEZE-M DEB 4.1 23:05:55 10° SW 23:09:58 67° SSE 23:09:58 67° SSE
COSMOS 2487 2.5 23:09:40 10° NNW 23:13:17 64° ENE 23:13:44 57° ESE
Atlas Centaur 2 3.5 23:11:40 10° SW 23:12:01 11° SW 23:12:01 11° SW
SL-27 R/B 4.2 23:11:33 10° NW 23:14:42 27° W 23:16:21 19° SW
YAOGAN 6 3.8 23:14:36 23° SW 23:16:08 35° W 23:19:24 10° NNW
Cosmos 1408 3.1 23:15:27 27° SSW 23:17:15 57° W 23:20:53 10° N
Cosmos 2297 4.2 23:16:56 35° SE 23:18:00 38° ESE 23:23:15 10° NE
IGS 5A 4.1 23:17:59 37° E 23:18:37 40° ENE 23:22:31 10° N
CZ-4 R/B 3.7 23:14:28 10° NNE 23:19:11 88° E 23:21:34 29° SSW
SL-8 Rocket 4.0 23:17:09 29° S 23:20:32 69° E 23:26:45 10° NNE
APEX 4.2 23:22:47 35° E 23:22:47 35° E 23:26:28 10° NE
SL-8 R/B 4.4 23:18:06 10° W 23:22:50 56° NNW 23:27:35 10° ENE
Meteor 2-13 Rocket 4.4 23:19:37 23° S 23:23:42 89° E 23:29:53 10° N
CENTAUR R/B 4.2 23:17:53 10° NW 23:24:53 35° WSW 23:30:41 15° SSW
Cosmos 1975 Rocket 3.2 23:21:44 10° NNW 23:26:02 70° W 23:27:24 41° SSW
SL-08 RB Rocket 3.9 23:24:58 38° S 23:26:40 68° W 23:31:17 10° NNW
Cosmos 1606 4.4 23:24:01 10° NNW 23:27:28 30° W 23:29:28 19° SW
CARTOSAT-1 3.6 23:27:44 52° ESE 23:28:28 61° ENE 23:32:44 10° N
Okean 3 4.3 23:28:32 10° NNW 23:32:40 47° W 23:34:14 32° SW
Cosmos 1242 Rocket 2.6 23:33:40 10° NNW 23:37:17 67° W 23:37:28 66° WSW
H-2A R/B 2.1 23:36:42 45° SSE 23:38:29 88° E 23:43:53 10° NNW
Cosmos 1536 Rocket 3.9 23:34:24 10° N 23:38:45 49° E 23:39:02 48° E
Cosmos 1023 Rocket 4.4 23:39:21 10° NNW 23:44:27 75° WSW 23:45:41 51° S
Spot 2 4.4 23:41:33 10° NNE 23:45:29 49° E 23:45:29 49° E
Cosmos 1420 Rocket 4.1 23:46:17 30° SSW 23:48:54 75° WNW 23:54:09 10° NNE
Cosmos 2151 Rocket 3.5 23:49:00 71° SSE 23:49:26 82° E 23:54:00 10° N
Meteor 2-8 Rocket 4.4 23:44:04 10° N 23:50:13 71° E 23:51:55 48° SSE
Cosmos 864 Rocket 4.3 23:51:03 43° S 23:53:12 83° E 23:59:22 10° N
CZ-3C R/B 4.5 23:53:27 10° SW 23:55:50 11° SSW 23:55:50 11° SSW
